Time,TemperatureF,DewpointF,PressureIn,WindDirection,WindDirectionDegrees,WindSpeedMPH,WindSpeedGustMPH,Humidity,HourlyPrecipIn,Conditions,Clouds,dailyrainin,SoftwareType,DateUTC
2013-07-13 00:00:00,70.6,65.5,29.94,East,80,0.0,0.0,84,0.00,,BKN009,0.00,VWS V14.00,2013-07-13 04:00:00,
2013-07-13 00:15:00,70.6,65.5,29.94,East,80,0.0,0.0,84,0.00,,BKN009,0.00,VWS V14.00,2013-07-13 04:15:00,
2013-07-13 00:30:00,70.6,65.5,29.95,East,80,0.0,0.0,84,0.00,,BKN009,0.00,VWS V14.00,2013-07-13 04:30:00,
2013-07-13 00:45:00,70.6,65.5,29.95,East,80,0.0,0.0,84,0.00,,BKN009,0.00,VWS V14.00,2013-07-13 04:45:00,
2013-07-13 01:00:00,70.6,65.5,29.96,East,80,0.0,0.0,84,0.00,,OVC009,0.00,VWS V14.00,2013-07-13 05:00:00,
2013-07-13 01:15:00,70.6,65.5,29.95,East,80,0.0,0.0,84,0.00,,OVC009,0.00,VWS V14.00,2013-07-13 05:15:00,
2013-07-13 01:30:00,70.6,65.5,29.96,East,80,0.0,0.0,84,0.00,,OVC009,0.00,VWS V14.00,2013-07-13 05:30:00,
2013-07-13 01:45:00,70.6,65.5,29.95,East,80,0.0,0.0,84,0.00,,OVC009,0.00,VWS V14.00,2013-07-13 05:45:00,
2013-07-13 02:00:00,70.6,65.5,29.95,East,80,0.0,0.0,84,0.00,,OVC009,0.00,VWS V14.00,2013-07-13 06:00:00,
2013-07-13 02:15:00,70.6,65.5,29.95,East,80,0.0,0.0,84,0.00,,OVC009,0.00,VWS V14.00,2013-07-13 06:15:00,
2013-07-13 02:30:00,70.6,65.5,29.96,East,80,0.0,0.0,84,0.00,,OVC009,0.00,VWS V14.00,2013-07-13 06:30:00,
2013-07-13 02:45:00,70.6,65.5,29.96,East,80,0.0,0.0,84,0.00,,OVC009,0.00,VWS V14.00,2013-07-13 06:45:00,
2013-07-13 03:00:00,70.6,65.5,29.96,East,80,0.0,0.0,84,0.00,,OVC007,0.00,VWS V14.00,2013-07-13 07:00:00,
2013-07-13 03:15:00,70.6,65.5,29.97,East,80,0.0,0.0,84,0.00,,OVC007,0.00,VWS V14.00,2013-07-13 07:15:00,
2013-07-13 03:30:00,70.6,65.5,29.97,East,80,0.0,0.0,84,0.00,,OVC007,0.00,VWS V14.00,2013-07-13 07:30:00,
2013-07-13 03:45:00,70.6,65.5,29.97,East,80,0.0,0.0,84,0.00,,OVC007,0.00,VWS V14.00,2013-07-13 07:45:00,
2013-07-13 04:00:00,70.6,65.5,29.98,East,80,0.0,0.0,84,0.00,,,0.00,VWS V14.00,2013-07-13 08:00:00,
2013-07-13 04:15:00,70.6,65.5,29.97,East,80,0.0,0.0,84,0.00,,,0.00,VWS V14.00,2013-07-13 08:15:00,
2013-07-13 04:30:00,70.6,65.5,29.97,East,80,0.0,0.0,84,0.00,,,0.00,VWS V14.00,2013-07-13 08:30:00,
2013-07-13 04:45:00,70.6,65.5,29.97,East,80,0.0,0.0,84,0.00,,,0.00,VWS V14.00,2013-07-13 08:45:00,
2013-07-13 05:00:00,70.6,65.5,29.97,East,80,0.0,0.0,84,0.00,,-RA,0.00,VWS V14.00,2013-07-13 09:00:00,
2013-07-13 05:15:00,70.6,65.5,29.98,East,80,0.0,0.0,84,0.00,,-RA,0.00,VWS V14.00,2013-07-13 09:15:00,
2013-07-13 05:30:00,70.6,65.5,29.98,East,80,0.0,0.0,84,0.00,,-RA,0.00,VWS V14.00,2013-07-13 09:30:00,
2013-07-13 05:45:00,70.6,65.5,29.98,East,80,0.0,0.0,84,0.00,,-RA,0.00,VWS V14.00,2013-07-13 09:45:00,
2013-07-13 06:00:00,70.6,65.5,29.99,East,80,0.0,0.0,84,0.00,,,0.00,VWS V14.00,2013-07-13 10:00:00,
2013-07-13 06:15:00,70.6,65.5,29.99,East,80,0.0,0.0,84,0.00,,,0.00,VWS V14.00,2013-07-13 10:15:00,
2013-07-13 06:30:00,70.6,65.5,29.99,East,80,0.0,0.0,84,0.00,,,0.00,VWS V14.00,2013-07-13 10:30:00,
2013-07-13 06:45:00,70.6,65.5,30.00,East,80,0.0,0.0,84,0.00,,,0.00,VWS V14.00,2013-07-13 10:45:00,
2013-07-13 07:00:00,70.6,65.5,30.00,East,80,0.0,0.0,84,0.00,,,0.00,VWS V14.00,2013-07-13 11:00:00,
2013-07-13 07:15:00,70.6,65.5,30.01,East,80,0.0,0.0,84,0.00,,,0.00,VWS V14.00,2013-07-13 11:15:00,
2013-07-13 07:30:00,70.6,65.5,30.01,East,80,0.0,0.0,84,0.00,,,0.00,VWS V14.00,2013-07-13 11:30:00,
2013-07-13 07:45:00,70.6,65.5,30.02,East,80,0.0,0.0,84,0.00,,,0.00,VWS V14.00,2013-07-13 11:45:00,
2013-07-13 08:00:00,70.6,65.5,30.03,East,80,0.0,0.0,84,0.00,,,0.00,VWS V14.00,2013-07-13 12:00:00,
2013-07-13 08:15:00,70.6,65.5,30.03,East,80,0.0,0.0,84,0.00,,,0.00,VWS V14.00,2013-07-13 12:15:00,
2013-07-13 08:30:00,70.4,68.6,30.04,East,92,1.0,3.0,94,0.00,,,0.00,VWS V14.00,2013-07-13 12:30:00,
2013-07-13 08:45:00,70.6,68.8,30.04,East,89,0.0,2.0,94,0.00,,,0.00,VWS V14.00,2013-07-13 12:45:00,
2013-07-13 09:00:00,70.9,68.8,30.04,East,86,0.0,2.0,93,0.00,,-RA,0.00,VWS V14.00,2013-07-13 13:00:00,
2013-07-13 09:15:00,71.1,69.0,30.04,East,85,0.0,5.0,93,0.00,,-RA,0.00,VWS V14.00,2013-07-13 13:15:00,
2013-07-13 09:30:00,71.6,69.5,30.04,East,86,0.0,2.0,93,0.00,,-RA,0.00,VWS V14.00,2013-07-13 13:30:00,
2013-07-13 09:45:00,71.8,69.3,30.04,East,79,0.0,4.0,92,0.01,,-RA,0.01,VWS V14.00,2013-07-13 13:45:00,
2013-07-13 10:00:00,72.0,69.2,30.04,ENE,73,0.0,3.0,91,0.01,,,0.01,VWS V14.00,2013-07-13 14:00:00,
2013-07-13 10:15:00,72.3,69.5,30.04,ENE,71,0.0,2.0,91,0.01,,,0.01,VWS V14.00,2013-07-13 14:15:00,
2013-07-13 10:30:00,72.5,69.7,30.04,ENE,71,0.0,0.0,91,0.01,,,0.01,VWS V14.00,2013-07-13 14:30:00,
2013-07-13 10:45:00,72.5,69.4,30.05,ENE,78,0.0,3.0,90,0.01,,,0.01,VWS V14.00,2013-07-13 14:45:00,
2013-07-13 11:00:00,72.7,69.3,30.06,ESE,112,0.0,4.0,89,0.00,,,0.01,VWS V14.00,2013-07-13 15:00:00,
2013-07-13 11:15:00,73.2,69.8,30.05,ESE,112,0.0,2.0,89,0.00,,OVC021,0.01,VWS V14.00,2013-07-13 15:15:00,
2013-07-13 11:30:00,73.9,70.5,30.05,ESE,106,0.0,3.0,89,0.00,,OVC021,0.01,VWS V14.00,2013-07-13 15:30:00,
2013-07-13 11:45:00,74.4,69.9,30.04,East,88,0.0,6.0,86,0.00,,OVC021,0.01,VWS V14.00,2013-07-13 15:45:00,
2013-07-13 12:00:00,75.1,70.6,30.04,NNE,27,0.0,3.0,86,0.00,,,0.01,VWS V14.00,2013-07-13 16:00:00,
2013-07-13 12:15:00,75.1,69.9,30.04,ENE,64,1.0,3.0,84,0.00,,,0.01,VWS V14.00,2013-07-13 16:15:00,
2013-07-13 12:30:00,74.9,69.7,30.05,NE,42,0.0,4.0,84,0.00,,,0.01,VWS V14.00,2013-07-13 16:30:00,
2013-07-13 12:45:00,74.6,70.1,30.05,NE,52,0.0,5.0,86,0.00,,,0.01,VWS V14.00,2013-07-13 16:45:00,
2013-07-13 13:00:00,74.2,70.1,30.05,ENE,61,0.0,5.0,87,0.00,,OVC110,0.01,VWS V14.00,2013-07-13 17:00:00,
2013-07-13 13:15:00,74.4,70.3,30.04,ENE,59,0.0,3.0,87,0.00,,OVC110,0.01,VWS V14.00,2013-07-13 17:15:00,
2013-07-13 13:30:00,74.9,71.1,30.04,East,86,0.0,3.0,88,0.00,,OVC110,0.01,VWS V14.00,2013-07-13 17:30:00,
2013-07-13 13:45:00,76.0,70.8,30.03,East,92,0.0,7.0,84,0.00,,OVC110,0.01,VWS V14.00,2013-07-13 17:45:00,
2013-07-13 14:00:00,76.5,70.6,30.03,NNE,20,0.0,5.0,82,0.00,,-RA,0.01,VWS V14.00,2013-07-13 18:00:00,
2013-07-13 18:30:00,77.0,71.1,30.03,East,90,0.0,4.0,82,0.00,,-RA,0.01,VWS V14.00,2013-07-13 22:30:00,
2013-07-13 18:45:00,76.8,70.9,30.03,NE,45,1.0,7.0,82,0.00,,-RA,0.01,VWS V14.00,2013-07-13 22:45:00,
2013-07-13 19:15:00,76.3,71.5,30.03,North,356,3.0,3.0,85,0.00,,-RA,0.01,VWS V14.00,2013-07-13 23:15:00,
2013-07-13 19:45:00,75.8,71.3,30.04,East,80,0.0,3.0,86,0.00,,OVC250,0.01,VWS V14.00,2013-07-13 23:45:00,
2013-07-13 20:00:00,75.8,71.3,30.05,NE,55,2.0,3.0,86,0.00,,OVC250,0.01,VWS V14.00,2013-07-14 00:00:00,
2013-07-13 20:30:00,75.8,71.3,30.05,East,92,1.0,7.0,86,0.00,,OVC250,0.01,VWS V14.00,2013-07-14 00:30:00,
2013-07-13 20:32:00,76.0,71.5,30.04,NE,52,0.0,3.0,86,0.00,,OVC250,0.01,VWS V14.00,2013-07-14 00:32:00,
2013-07-13 20:45:00,75.8,71.3,30.05,East,96,0.0,5.0,86,0.00,,OVC250,0.01,VWS V14.00,2013-07-14 00:45:00,
2013-07-13 21:00:00,75.8,71.3,30.05,SSE,158,2.0,6.0,86,0.00,,OVC250,0.01,VWS V14.00,2013-07-14 01:00:00,
2013-07-13 21:17:00,75.8,71.3,30.05,SE,131,0.0,4.0,86,0.00,,OVC250,0.01,VWS V14.00,2013-07-14 01:17:00,
2013-07-13 22:00:00,75.1,71.0,30.07,ENE,75,1.0,3.0,87,0.01,,-RA,0.02,VWS V14.00,2013-07-14 02:00:00,
2013-07-13 23:00:00,74.0,71.5,30.07,ENE,68,1.0,4.0,92,0.00,,,0.02,VWS V14.00,2013-07-14 03:00:00,
2013-07-13 23:30:00,73.9,71.4,30.08,East,79,0.0,2.0,92,0.00,,,0.02,VWS V14.00,2013-07-14 03:30:00,
2013-07-13 23:45:00,73.9,71.4,30.08,East,86,0.0,3.0,92,0.00,,OVC060,0.02,VWS V14.00,2013-07-14 03:45:00,